^^

..:: Storico WU ::..




Lo storico viene creato da WUnderground con i dati che la stazione Meteomincio invia al loro server. L' aggiornamento viene fatto ogni 5 minuti circa, tuttavia possono esserci intervalli pił ampi a causa di errori, interruzioni di servizio o problemi nell' invio tramite FTP.


Storico stazione MeteoMincio
 
Giorno Sommario per Dicembre 09, 2023 Unità:  Metrico    Inglese   Entrambi
Giorno Settimana Mese Anno
  Corrente: Max: Min: Media:
Temperatura: 4.7 °C 4.8 °C 2.5 °C 3.3 °C
Dew Point: 4.1 °C 4.4 °C 2.1 °C 2.9 °C
Umidità: 96% 98% 96% 97%
Velocità vento: 6km/h 12km/h 0km/h 7.4km/h
Raffica: 10km/h 15km/h - -
DirezioneWNW - - West
Pressione: 1016.9 hPa 1020.0 hPa 1016.9 hPa -
Precipitazioni: 0.00 mm      
 
 
Tabulato Dati per Dicembre 09, 2023
Ora Temperatura Dew Point Pressione Direzione Velocità vento Raffica Umidità Intensità pioggia (oraria) Info solare Situazione
00:04 3.2 °C 2.6 °C 1017.8 hPa West 5 km/h 6 km/h 96% 0.00 mm 0.00 W/m2 unknown
00:09 3.2 °C 2.6 °C 1017.8 hPa West 4 km/h 6 km/h 96% 0.00 mm 0.00 W/m2 unknown
00:14 3.2 °C 2.6 °C 1017.8 hPa West 4 km/h 6 km/h 96% 0.00 mm 0.00 W/m2 unknown
00:19 3.2 °C 2.6 °C 1017.8 hPa West 4 km/h 6 km/h 96% 0.00 mm 0.00 W/m2 unknown
00:24 3.2 °C 2.6 °C 1017.8 hPa West 5 km/h 6 km/h 96% 0.00 mm 0.00 W/m2 unknown
00:29 3.2 °C 2.7 °C 1017.8 hPa West 5 km/h 6 km/h 96% 0.00 mm 0.00 W/m2 unknown
00:34 3.2 °C 2.6 °C 1017.9 hPa West 6 km/h 6 km/h 96% 0.00 mm 0.00 W/m2 unknown
00:39 3.2 °C 2.7 °C 1017.9 hPa West 5 km/h 6 km/h 96% 0.00 mm 0.00 W/m2 unknown
00:44 3.2 °C 2.6 °C 1017.9 hPa West 5 km/h 6 km/h 96% 0.00 mm 0.00 W/m2 unknown
00:49 3.2 °C 2.7 °C 1018.0 hPa WNW 6 km/h 8 km/h 96% 0.00 mm 0.00 W/m2 unknown
00:54 3.2 °C 2.7 °C 1017.9 hPa West 5 km/h 8 km/h 96% 0.00 mm 0.00 W/m2 unknown
00:59 3.2 °C 2.7 °C 1017.9 hPa West 5 km/h 6 km/h 96% 0.00 mm 0.00 W/m2 unknown
01:04 3.2 °C 2.7 °C 1017.9 hPa West 5 km/h 8 km/h 96% 0.00 mm 0.00 W/m2 unknown
01:09 3.2 °C 2.7 °C 1017.9 hPa WNW 5 km/h 8 km/h 96% 0.00 mm 0.00 W/m2 unknown
01:14 3.2 °C 2.7 °C 1017.9 hPa WNW 5 km/h 8 km/h 96% 0.00 mm 0.00 W/m2 unknown
01:19 3.2 °C 2.7 °C 1018.0 hPa WNW 5 km/h 6 km/h 96% 0.00 mm 0.00 W/m2 unknown
01:24 3.2 °C 2.7 °C 1018.0 hPa WNW 5 km/h 6 km/h 96% 0.00 mm 0.00 W/m2 unknown
01:29 3.2 °C 2.7 °C 1017.9 hPa WNW 6 km/h 8 km/h 96% 0.00 mm 0.00 W/m2 unknown
01:34 3.2 °C 2.7 °C 1017.9 hPa West 7 km/h 10 km/h 96% 0.00 mm 0.00 W/m2 unknown
01:39 3.2 °C 2.7 °C 1018.0 hPa West 8 km/h 10 km/h 96% 0.00 mm 0.00 W/m2 unknown
01:44 3.2 °C 2.7 °C 1018.1 hPa West 7 km/h 13 km/h 96% 0.00 mm 0.00 W/m2 unknown
01:49 3.2 °C 2.7 °C 1018.1 hPa West 9 km/h 13 km/h 96% 0.00 mm 0.00 W/m2 unknown
01:54 3.2 °C 2.7 °C 1018.1 hPa West 8 km/h 11 km/h 96% 0.00 mm 0.00 W/m2 unknown
01:59 3.2 °C 2.7 °C 1018.0 hPa West 7 km/h 11 km/h 96% 0.00 mm 0.00 W/m2 unknown
02:04 3.2 °C 2.7 °C 1018.0 hPa West 6 km/h 11 km/h 96% 0.00 mm 0.00 W/m2 unknown
02:09 3.2 °C 2.7 °C 1018.0 hPa West 5 km/h 10 km/h 96% 0.00 mm 0.00 W/m2 unknown
02:14 3.2 °C 2.7 °C 1018.0 hPa West 5 km/h 8 km/h 96% 0.00 mm 0.00 W/m2 unknown
02:19 3.2 °C 2.6 °C 1018.1 hPa West 6 km/h 6 km/h 96% 0.00 mm 0.00 W/m2 unknown
02:24 3.2 °C 2.6 °C 1018.2 hPa West 5 km/h 8 km/h 96% 0.00 mm 0.00 W/m2 unknown
02:29 3.2 °C 2.6 °C 1018.2 hPa West 6 km/h 8 km/h 96% 0.00 mm 0.00 W/m2 unknown
02:34 3.1 °C 2.6 °C 1018.2 hPa WNW 6 km/h 8 km/h 96% 0.00 mm 0.00 W/m2 unknown
02:39 3.1 °C 2.6 °C 1018.2 hPa WNW 6 km/h 8 km/h 96% 0.00 mm 0.00 W/m2 unknown
02:44 3.1 °C 2.6 °C 1018.2 hPa WNW 5 km/h 8 km/h 96% 0.00 mm 0.00 W/m2 unknown
02:49 3.1 °C 2.5 °C 1018.3 hPa WNW 8 km/h 11 km/h 96% 0.00 mm 0.00 W/m2 unknown
02:54 3.1 °C 2.5 °C 1018.3 hPa WNW 8 km/h 11 km/h 96% 0.00 mm 0.00 W/m2 unknown
02:59 3.1 °C 2.5 °C 1018.4 hPa WNW 5 km/h 7 km/h 96% 0.00 mm 0.00 W/m2 unknown
03:04 3.0 °C 2.4 °C 1018.4 hPa WNW 4 km/h 8 km/h 96% 0.00 mm 0.00 W/m2 unknown
03:09 3.0 °C 2.4 °C 1018.5 hPa WNW 7 km/h 10 km/h 96% 0.00 mm 0.00 W/m2 unknown
03:14 3.1 °C 2.5 °C 1018.5 hPa WNW 8 km/h 10 km/h 96% 0.00 mm 0.00 W/m2 unknown
03:19 3.1 °C 2.5 °C 1018.6 hPa WNW 8 km/h 10 km/h 96% 0.00 mm 0.00 W/m2 unknown
03:24 3.1 °C 2.5 °C 1018.6 hPa WNW 5 km/h 10 km/h 96% 0.00 mm 0.00 W/m2 unknown
03:29 3.1 °C 2.5 °C 1018.6 hPa WNW 7 km/h 10 km/h 96% 0.00 mm 0.00 W/m2 unknown
03:34 3.1 °C 2.5 °C 1018.6 hPa West 8 km/h 10 km/h 96% 0.00 mm 0.00 W/m2 unknown
03:39 3.1 °C 2.5 °C 1018.6 hPa West 6 km/h 10 km/h 96% 0.00 mm 0.00 W/m2 unknown
03:44 3.1 °C 2.5 °C 1018.6 hPa West 7 km/h 8 km/h 96% 0.00 mm 0.00 W/m2 unknown
03:49 3.1 °C 2.5 °C 1018.5 hPa WSW 5 km/h 8 km/h 96% 0.00 mm 0.00 W/m2 unknown
03:54 3.1 °C 2.5 °C 1018.5 hPa WSW 6 km/h 8 km/h 96% 0.00 mm 0.00 W/m2 unknown
03:59 3.1 °C 2.5 °C 1018.5 hPa WSW 5 km/h 8 km/h 96% 0.00 mm 0.00 W/m2 unknown
04:04 3.1 °C 2.5 °C 1018.4 hPa WSW 5 km/h 8 km/h 96% 0.00 mm 0.00 W/m2 unknown
04:09 3.1 °C 2.5 °C 1018.3 hPa WSW 6 km/h 8 km/h 96% 0.00 mm 0.00 W/m2 unknown
04:14 3.0 °C 2.4 °C 1018.3 hPa WSW 6 km/h 8 km/h 96% 0.00 mm 0.00 W/m2 unknown
04:19 3.0 °C 2.4 °C 1018.3 hPa West 5 km/h 8 km/h 96% 0.00 mm 0.00 W/m2 unknown
04:24 3.0 °C 2.4 °C 1018.5 hPa WSW 6 km/h 10 km/h 96% 0.00 mm 0.00 W/m2 unknown
04:29 3.0 °C 2.4 °C 1018.7 hPa WSW 6 km/h 10 km/h 96% 0.00 mm 0.00 W/m2 unknown
04:34 3.0 °C 2.4 °C 1018.9 hPa West 8 km/h 11 km/h 96% 0.00 mm 0.00 W/m2 unknown
04:39 2.9 °C 2.4 °C 1018.9 hPa WSW 9 km/h 11 km/h 96% 0.00 mm 0.00 W/m2 unknown
04:44 2.9 °C 2.4 °C 1018.8 hPa WSW 8 km/h 11 km/h 96% 0.00 mm 0.00 W/m2 unknown
04:49 2.9 °C 2.4 °C 1018.7 hPa WSW 8 km/h 11 km/h 96% 0.00 mm 0.00 W/m2 unknown
04:54 2.9 °C 2.3 °C 1018.7 hPa West 8 km/h 10 km/h 96% 0.00 mm 0.00 W/m2 unknown
04:59 2.9 °C 2.3 °C 1018.7 hPa West 8 km/h 10 km/h 96% 0.00 mm 0.00 W/m2 unknown
05:04 2.9 °C 2.3 °C 1018.7 hPa West 8 km/h 10 km/h 96% 0.00 mm 0.00 W/m2 unknown
05:09 2.8 °C 2.3 °C 1018.7 hPa West 7 km/h 10 km/h 96% 0.00 mm 0.00 W/m2 unknown
05:14 2.8 °C 2.3 °C 1018.7 hPa West 6 km/h 10 km/h 96% 0.00 mm 0.00 W/m2 unknown
05:19 2.9 °C 2.3 °C 1018.7 hPa West 7 km/h 9 km/h 96% 0.00 mm 0.00 W/m2 unknown
05:24 2.9 °C 2.3 °C 1018.7 hPa West 9 km/h 11 km/h 96% 0.00 mm 0.00 W/m2 unknown
05:29 2.9 °C 2.3 °C 1018.8 hPa West 8 km/h 11 km/h 96% 0.00 mm 0.00 W/m2 unknown
05:34 2.9 °C 2.3 °C 1018.8 hPa WNW 10 km/h 11 km/h 96% 0.00 mm 0.00 W/m2 unknown
05:39 2.9 °C 2.3 °C 1018.7 hPa West 10 km/h 11 km/h 96% 0.00 mm 0.00 W/m2 unknown
05:44 2.9 °C 2.3 °C 1018.7 hPa West 7 km/h 10 km/h 96% 0.00 mm 0.00 W/m2 unknown
05:49 2.9 °C 2.3 °C 1018.7 hPa WNW 7 km/h 10 km/h 96% 0.00 mm 0.00 W/m2 unknown
05:54 2.9 °C 2.3 °C 1018.5 hPa West 7 km/h 10 km/h 96% 0.00 mm 0.00 W/m2 unknown
05:59 2.9 °C 2.3 °C 1018.5 hPa West 5 km/h 8 km/h 96% 0.00 mm 0.00 W/m2 unknown
06:04 2.9 °C 2.3 °C 1018.4 hPa West 3 km/h 6 km/h 96% 0.00 mm 0.00 W/m2 unknown
06:09 2.9 °C 2.3 °C 1018.2 hPa West 2 km/h 4 km/h 96% 0.00 mm 0.00 W/m2 unknown
06:14 2.9 °C 2.3 °C 1018.1 hPa West 2 km/h 4 km/h 96% 0.00 mm 0.00 W/m2 unknown
06:19 2.9 °C 2.3 °C 1018.0 hPa Calm   3 km/h 96% 0.00 mm 0.00 W/m2 unknown
06:24 2.9 °C 2.3 °C 1018.1 hPa West 3 km/h 6 km/h 96% 0.00 mm 0.00 W/m2 unknown
06:29 2.9 °C 2.3 °C 1018.1 hPa WNW 3 km/h 6 km/h 96% 0.00 mm 0.00 W/m2 unknown
06:34 2.9 °C 2.4 °C 1018.0 hPa West 5 km/h 6 km/h 96% 0.00 mm 0.00 W/m2 unknown
06:39 2.9 °C 2.3 °C 1018.1 hPa West 5 km/h 6 km/h 96% 0.00 mm 0.00 W/m2 unknown
06:44 2.9 °C 2.4 °C 1018.2 hPa West 5 km/h 8 km/h 96% 0.00 mm 0.00 W/m2 unknown
06:49 2.9 °C 2.3 °C 1018.3 hPa West 7 km/h 8 km/h 96% 0.00 mm 0.00 W/m2 unknown
06:54 2.9 °C 2.4 °C 1018.4 hPa WNW 7 km/h 8 km/h 97% 0.00 mm 0.00 W/m2 unknown
06:59 2.9 °C 2.4 °C 1018.4 hPa West 6 km/h 10 km/h 97% 0.00 mm 0.00 W/m2 unknown
07:04 2.8 °C 2.4 °C 1018.7 hPa West 7 km/h 11 km/h 97% 0.00 mm 0.00 W/m2 unknown
07:09 2.8 °C 2.3 °C 1018.9 hPa West 8 km/h 11 km/h 97% 0.00 mm 0.00 W/m2 unknown
07:14 2.7 °C 2.3 °C 1018.8 hPa West 7 km/h 10 km/h 97% 0.00 mm 0.00 W/m2 unknown
07:19 2.7 °C 2.3 °C 1018.8 hPa West 8 km/h 10 km/h 97% 0.00 mm 0.00 W/m2 unknown
07:24 2.7 °C 2.3 °C 1018.8 hPa West 8 km/h 10 km/h 97% 0.00 mm 0.00 W/m2 unknown
07:29 2.7 °C 2.3 °C 1018.9 hPa WNW 9 km/h 13 km/h 97% 0.00 mm 0.00 W/m2 unknown
07:34 2.7 °C 2.2 °C 1019.0 hPa West 10 km/h 13 km/h 97% 0.00 mm 0.00 W/m2 unknown
07:39 2.7 °C 2.2 °C 1019.1 hPa West 10 km/h 13 km/h 97% 0.00 mm 0.00 W/m2 unknown
07:44 2.7 °C 2.2 °C 1019.1 hPa West 8 km/h 10 km/h 97% 0.00 mm 0.00 W/m2 unknown
07:49 2.6 °C 2.2 °C 1019.1 hPa West 8 km/h 10 km/h 97% 0.00 mm 0.00 W/m2 unknown
07:54 2.6 °C 2.2 °C 1019.0 hPa West 8 km/h 11 km/h 97% 0.00 mm 0.00 W/m2 unknown
07:59 2.6 °C 2.2 °C 1019.1 hPa WNW 8 km/h 11 km/h 97% 0.00 mm 0.00 W/m2 unknown
08:04 2.6 °C 2.1 °C 1019.2 hPa WNW 7 km/h 11 km/h 97% 0.00 mm 5.00 W/m2 unknown
08:09 2.6 °C 2.2 °C 1019.3 hPa WNW 9 km/h 13 km/h 97% 0.00 mm 7.00 W/m2 unknown
08:14 2.6 °C 2.1 °C 1019.3 hPa NW 11 km/h 13 km/h 97% 0.00 mm 9.00 W/m2 unknown
08:19 2.6 °C 2.1 °C 1019.2 hPa WNW 11 km/h 13 km/h 97% 0.00 mm 12.00 W/m2 unknown
08:24 2.6 °C 2.1 °C 1019.2 hPa WNW 10 km/h 13 km/h 97% 0.00 mm 14.00 W/m2 unknown
08:29 2.6 °C 2.1 °C 1019.2 hPa WNW 8 km/h 11 km/h 97% 0.00 mm 18.00 W/m2 unknown
08:34 2.6 °C 2.1 °C 1019.3 hPa WNW 11 km/h 13 km/h 97% 0.00 mm 21.00 W/m2 unknown
08:39 2.5 °C 2.1 °C 1019.3 hPa WNW 11 km/h 15 km/h 97% 0.00 mm 21.00 W/m2 unknown
08:44 2.5 °C 2.1 °C 1019.3 hPa WNW 10 km/h 15 km/h 97% 0.00 mm 25.00 W/m2 unknown
08:49 2.5 °C 2.1 °C 1019.3 hPa WNW 10 km/h 13 km/h 97% 0.00 mm 25.00 W/m2 unknown
08:54 2.6 °C 2.1 °C 1019.4 hPa WNW 12 km/h 15 km/h 97% 0.00 mm 25.00 W/m2 unknown
08:59 2.6 °C 2.1 °C 1019.3 hPa WNW 11 km/h 15 km/h 97% 0.00 mm 30.00 W/m2 unknown
09:04 2.6 °C 2.2 °C 1019.3 hPa WNW 10 km/h 15 km/h 97% 0.00 mm 35.00 W/m2 unknown
09:09 2.6 °C 2.2 °C 1019.2 hPa WNW 10 km/h 13 km/h 97% 0.00 mm 33.00 W/m2 unknown
09:14 2.6 °C 2.2 °C 1019.2 hPa WNW 6 km/h 10 km/h 97% 0.00 mm 25.00 W/m2 unknown
09:19 2.6 °C 2.2 °C 1019.2 hPa WNW 7 km/h 10 km/h 97% 0.00 mm 32.00 W/m2 unknown
09:24 2.7 °C 2.2 °C 1019.3 hPa West 6 km/h 10 km/h 97% 0.00 mm 35.00 W/m2 unknown
09:29 2.7 °C 2.3 °C 1019.4 hPa West 8 km/h 11 km/h 97% 0.00 mm 37.00 W/m2 unknown
09:34 2.7 °C 2.2 °C 1019.4 hPa West 9 km/h 11 km/h 97% 0.00 mm 37.00 W/m2 unknown
09:39 2.7 °C 2.3 °C 1019.4 hPa West 8 km/h 11 km/h 97% 0.00 mm 33.00 W/m2 unknown
09:44 2.7 °C 2.3 °C 1019.4 hPa West 7 km/h 11 km/h 97% 0.00 mm 37.00 W/m2 unknown
09:49 2.7 °C 2.3 °C 1019.4 hPa WNW 8 km/h 11 km/h 97% 0.00 mm 37.00 W/m2 unknown
09:54 2.8 °C 2.3 °C 1019.6 hPa WNW 8 km/h 11 km/h 97% 0.00 mm 35.00 W/m2 unknown
09:59 2.8 °C 2.3 °C 1019.8 hPa WNW 6 km/h 10 km/h 97% 0.00 mm 49.00 W/m2 unknown
10:04 2.8 °C 2.4 °C 1019.8 hPa WNW 6 km/h 8 km/h 97% 0.00 mm 44.00 W/m2 unknown
10:09 2.8 °C 2.4 °C 1019.8 hPa West 5 km/h 6 km/h 97% 0.00 mm 42.00 W/m2 unknown
10:14 2.9 °C 2.4 °C 1020.0 hPa WNW 6 km/h 8 km/h 97% 0.00 mm 33.00 W/m2 unknown
10:19 2.9 °C 2.5 °C 1020.0 hPa WNW 8 km/h 11 km/h 97% 0.00 mm 30.00 W/m2 unknown
10:24 3.0 °C 2.6 °C 1020.0 hPa WNW 9 km/h 11 km/h 97% 0.00 mm 58.00 W/m2 unknown
10:29 3.0 °C 2.6 °C 1019.8 hPa WNW 10 km/h 11 km/h 97% 0.00 mm 84.00 W/m2 unknown
10:34 2.9 °C 2.5 °C 1019.8 hPa WNW 10 km/h 11 km/h 97% 0.00 mm 88.00 W/m2 unknown
10:39 3.0 °C 2.6 °C 1019.8 hPa West 8 km/h 11 km/h 97% 0.00 mm 86.00 W/m2 unknown
10:44 3.1 °C 2.6 °C 1019.7 hPa WNW 10 km/h 11 km/h 97% 0.00 mm 86.00 W/m2 unknown
10:49 3.1 °C 2.7 °C 1019.7 hPa WNW 8 km/h 11 km/h 97% 0.00 mm 90.00 W/m2 unknown
10:54 3.1 °C 2.7 °C 1019.7 hPa West 6 km/h 10 km/h 97% 0.00 mm 90.00 W/m2 unknown
10:59 3.2 °C 2.8 °C 1019.7 hPa WNW 7 km/h 10 km/h 97% 0.00 mm 91.00 W/m2 unknown
11:04 3.3 °C 2.9 °C 1019.8 hPa WNW 9 km/h 13 km/h 97% 0.00 mm 81.00 W/m2 unknown
11:09 3.3 °C 2.9 °C 1019.9 hPa WNW 9 km/h 13 km/h 97% 0.00 mm 81.00 W/m2 unknown
11:14 3.3 °C 2.9 °C 1019.8 hPa WNW 8 km/h 11 km/h 97% 0.00 mm 81.00 W/m2 unknown
11:19 3.3 °C 2.9 °C 1019.7 hPa WNW 9 km/h 11 km/h 97% 0.00 mm 97.00 W/m2 unknown
11:24 3.3 °C 2.9 °C 1019.4 hPa WNW 7 km/h 11 km/h 97% 0.00 mm 93.00 W/m2 unknown
11:29 3.5 °C 3.1 °C 1019.4 hPa NW 8 km/h 8 km/h 97% 0.00 mm 86.00 W/m2 unknown
11:34 3.5 °C 3.1 °C 1019.3 hPa NW 7 km/h 10 km/h 97% 0.00 mm 107.00 W/m2 unknown
11:39 3.4 °C 3.0 °C 1019.2 hPa West 6 km/h 10 km/h 97% 0.00 mm 120.00 W/m2 unknown
11:44 3.5 °C 3.1 °C 1019.2 hPa West 6 km/h 8 km/h 97% 0.00 mm 120.00 W/m2 unknown
11:49 3.6 °C 3.2 °C 1019.3 hPa West 10 km/h 13 km/h 97% 0.00 mm 142.00 W/m2 unknown
11:54 3.6 °C 3.2 °C 1019.2 hPa WNW 10 km/h 13 km/h 97% 0.00 mm 139.00 W/m2 unknown
11:59 3.6 °C 3.1 °C 1019.2 hPa WNW 8 km/h 11 km/h 97% 0.00 mm 114.00 W/m2 unknown
12:04 3.5 °C 3.1 °C 1019.1 hPa WNW 7 km/h 10 km/h 97% 0.00 mm 120.00 W/m2 unknown
12:09 3.5 °C 3.1 °C 1019.1 hPa West 7 km/h 10 km/h 97% 0.00 mm 130.00 W/m2 unknown
12:14 3.6 °C 3.3 °C 1019.1 hPa WSW 7 km/h 10 km/h 98% 0.00 mm 130.00 W/m2 unknown
12:19 3.7 °C 3.4 °C 1019.1 hPa West 9 km/h 11 km/h 98% 0.00 mm 134.00 W/m2 unknown
12:24 3.8 °C 3.4 °C 1019.1 hPa West 9 km/h 11 km/h 98% 0.00 mm 100.00 W/m2 unknown
12:29 3.9 °C 3.7 °C 1019.0 hPa West 10 km/h 13 km/h 98% 0.00 mm 109.00 W/m2 unknown
12:34 3.9 °C 3.7 °C 1019.0 hPa West 10 km/h 13 km/h 98% 0.00 mm 109.00 W/m2 unknown
12:39 3.9 °C 3.7 °C 1019.0 hPa WNW 10 km/h 13 km/h 98% 0.00 mm 102.00 W/m2 unknown
12:44 3.8 °C 3.4 °C 1018.8 hPa West 10 km/h 13 km/h 97% 0.00 mm 114.00 W/m2 unknown
12:49 3.9 °C 3.7 °C 1018.7 hPa West 12 km/h 15 km/h 98% 0.00 mm 123.00 W/m2 unknown
12:54 4.0 °C 3.7 °C 1018.6 hPa WSW 11 km/h 15 km/h 98% 0.00 mm 120.00 W/m2 unknown
12:59 4.0 °C 3.7 °C 1018.5 hPa WSW 10 km/h 13 km/h 98% 0.00 mm 125.00 W/m2 unknown
13:04 4.2 °C 3.9 °C 1018.4 hPa West 8 km/h 13 km/h 98% 0.00 mm 125.00 W/m2 unknown
13:09 4.2 °C 3.9 °C 1018.3 hPa WSW 8 km/h 11 km/h 98% 0.00 mm 105.00 W/m2 unknown
13:14 4.0 °C 3.7 °C 1018.1 hPa WSW 8 km/h 10 km/h 98% 0.00 mm 105.00 W/m2 unknown
13:19 3.9 °C 3.6 °C 1018.2 hPa WSW 6 km/h 10 km/h 98% 0.00 mm 83.00 W/m2 unknown
13:24 4.0 °C 3.7 °C 1018.2 hPa WSW 7 km/h 10 km/h 98% 0.00 mm 70.00 W/m2 unknown
13:29 4.0 °C 3.7 °C 1018.2 hPa West 11 km/h 13 km/h 98% 0.00 mm 86.00 W/m2 unknown
13:34 3.9 °C 3.7 °C 1018.1 hPa West 11 km/h 13 km/h 98% 0.00 mm 84.00 W/m2 unknown
13:39 4.0 °C 3.7 °C 1018.0 hPa West 5 km/h 11 km/h 98% 0.00 mm 76.00 W/m2 unknown
13:44 4.1 °C 3.8 °C 1017.9 hPa West 8 km/h 11 km/h 98% 0.00 mm 72.00 W/m2 unknown
13:49 4.1 °C 3.8 °C 1017.9 hPa West 9 km/h 11 km/h 98% 0.00 mm 69.00 W/m2 unknown
13:54 4.1 °C 3.8 °C 1018.0 hPa West 10 km/h 11 km/h 98% 0.00 mm 69.00 W/m2 unknown
13:59 4.2 °C 3.7 °C 1018.0 hPa West 7 km/h 11 km/h 97% 0.00 mm 74.00 W/m2 unknown
14:04 4.3 °C 4.0 °C 1017.9 hPa West 10 km/h 13 km/h 98% 0.00 mm 86.00 W/m2 unknown
14:09 4.3 °C 4.1 °C 1017.9 hPa West 10 km/h 13 km/h 98% 0.00 mm 76.00 W/m2 unknown
14:14 4.3 °C 4.1 °C 1017.8 hPa West 8 km/h 11 km/h 98% 0.00 mm 65.00 W/m2 unknown
14:19 4.4 °C 4.1 °C 1017.8 hPa WSW 6 km/h 11 km/h 98% 0.00 mm 86.00 W/m2 unknown
14:24 4.5 °C 4.2 °C 1017.8 hPa WSW 7 km/h 10 km/h 98% 0.00 mm 144.00 W/m2 unknown
14:29 4.6 °C 4.3 °C 1017.8 hPa WSW 9 km/h 13 km/h 98% 0.00 mm 144.00 W/m2 unknown
14:34 4.6 °C 4.3 °C 1017.8 hPa WSW 7 km/h 11 km/h 98% 0.00 mm 114.00 W/m2 unknown
14:39 4.6 °C 4.3 °C 1017.6 hPa WSW 7 km/h 11 km/h 98% 0.00 mm 93.00 W/m2 unknown
14:44 4.6 °C 4.3 °C 1017.5 hPa WSW 8 km/h 11 km/h 98% 0.00 mm 141.00 W/m2 unknown
14:49 4.7 °C 4.4 °C 1017.5 hPa West 10 km/h 13 km/h 98% 0.00 mm 135.00 W/m2 unknown
14:54 4.7 °C 4.3 °C 1017.5 hPa West 10 km/h 13 km/h 97% 0.00 mm 120.00 W/m2 unknown
14:59 4.6 °C 4.2 °C 1017.5 hPa West 10 km/h 13 km/h 97% 0.00 mm 98.00 W/m2 unknown
15:04 4.6 °C 4.1 °C 1017.5 hPa West 10 km/h 13 km/h 97% 0.00 mm 98.00 W/m2 unknown
15:09 4.6 °C 4.2 °C 1017.5 hPa West 11 km/h 15 km/h 97% 0.00 mm 77.00 W/m2 unknown
15:14 4.6 °C 4.2 °C 1017.3 hPa West 10 km/h 15 km/h 97% 0.00 mm 88.00 W/m2 unknown
15:19 4.7 °C 4.2 °C 1017.3 hPa West 8 km/h 13 km/h 97% 0.00 mm 88.00 W/m2 unknown
15:24 4.7 °C 4.2 °C 1017.3 hPa West 8 km/h 11 km/h 97% 0.00 mm 60.00 W/m2 unknown
15:29 4.7 °C 4.3 °C 1017.3 hPa WNW 9 km/h 11 km/h 97% 0.00 mm 62.00 W/m2 unknown
15:34 4.7 °C 4.3 °C 1017.3 hPa WNW 8 km/h 11 km/h 97% 0.00 mm 62.00 W/m2 unknown
15:39 4.8 °C 4.3 °C 1017.3 hPa West 7 km/h 10 km/h 97% 0.00 mm 47.00 W/m2 unknown
15:44 4.8 °C 4.3 °C 1017.3 hPa West 8 km/h 11 km/h 97% 0.00 mm 39.00 W/m2 unknown
15:49 4.8 °C 4.3 °C 1017.3 hPa West 8 km/h 11 km/h 97% 0.00 mm 37.00 W/m2 unknown
15:54 4.8 °C 4.2 °C 1017.2 hPa WNW 7 km/h 10 km/h 96% 0.00 mm 40.00 W/m2 unknown
15:59 4.8 °C 4.2 °C 1017.2 hPa WNW 7 km/h 10 km/h 96% 0.00 mm 37.00 W/m2 unknown
16:04 4.8 °C 4.2 °C 1017.2 hPa WNW 8 km/h 10 km/h 96% 0.00 mm 30.00 W/m2 unknown
16:09 4.8 °C 4.2 °C 1017.1 hPa WNW 7 km/h 10 km/h 96% 0.00 mm 26.00 W/m2 unknown
16:14 4.7 °C 4.1 °C 1016.9 hPa WNW 8 km/h 10 km/h 96% 0.00 mm 35.00 W/m2 unknown
16:19 4.7 °C 4.1 °C 1016.9 hPa WNW 6 km/h 10 km/h 96% 0.00 mm 46.00 W/m2 unknown
Stazione Meteorologica MeteoMincio Rivalta s/M (MN)
Con i complimenti di Weather Underground - 4 mb



METEO PILLOLE
Maggior quantità di pioggia caduta in 96 ore
Cratère Commerson (2310 m) - Isola di Réunion
Tra il 24 e 27 febbraio 2007 caddero 4936mm di pioggia.
Share

Non seguire questo link o sarai bannato dal sito!